AAY1248 KCHA-KSFB

Flight info

Callsign AAY1248
Flight time N/A
Altitude 37000
Route GQO THRSR Q79 ZPLEN BIGDE SHREK2
Aircraft A320/M-SDE3FGHIRWY/LB1

Departure

Time 2026-04-20 23:30
Airport Chattanooga Metropolitan Airport (Lovell Field) (KCHA)

Arrival

Time N/A
Airport Orlando Sanford International Airport (KSFB)
Time Latitude Longitude Altitude Speed Heading
2026-04-20 22:58 35.03782 -85.19867 691 ft 0 kts 116°
2026-04-20 23:02 35.03782 -85.19868 700 ft 0 kts 116°
2026-04-20 23:22 35.03789 -85.19883 691 ft 3 kts 138°
2026-04-20 23:22 35.03804 -85.19893 686 ft 3 kts 185°
2026-04-20 23:22 35.03817 -85.19891 687 ft 0 kts 197°
2026-04-20 23:25 35.03791 -85.19904 686 ft 10 kts 206°
2026-04-20 23:25 35.03738 -85.19945 689 ft 8 kts 213°
2026-04-20 23:26 35.03678 -85.19974 687 ft 14 kts 198°
2026-04-20 23:26 35.03582 -85.20010 684 ft 15 kts 197°
2026-04-20 23:26 35.03459 -85.20055 690 ft 20 kts 196°
2026-04-20 23:26 35.03331 -85.20101 689 ft 18 kts 197°
2026-04-20 23:27 35.03240 -85.20182 686 ft 16 kts 244°
2026-04-20 23:27 35.03164 -85.20284 691 ft 17 kts 200°
2026-04-20 23:27 35.03060 -85.20323 691 ft 15 kts 197°
2026-04-20 23:27 35.02955 -85.20362 691 ft 15 kts 197°
2026-04-20 23:28 35.02858 -85.20396 684 ft 14 kts 196°
2026-04-20 23:28 35.02751 -85.20436 691 ft 22 kts 197°
2026-04-20 23:28 35.02598 -85.20491 689 ft 23 kts 197°
2026-04-20 23:28 35.02443 -85.20548 691 ft 24 kts 196°
2026-04-20 23:29 35.02292 -85.20601 687 ft 13 kts 199°
2026-04-20 23:29 35.02258 -85.20676 691 ft 11 kts 285°
2026-04-20 23:29 35.02324 -85.20729 687 ft 21 kts 13°
2026-04-20 23:29 35.02714 -85.20587 688 ft 94 kts 16°
2026-04-20 23:30 35.03547 -85.20286 687 ft 153 kts 15°
2026-04-20 23:30 35.04620 -85.19888 1127 ft 169 kts 15°
2026-04-20 23:30 35.05759 -85.19448 1925 ft 171 kts 17°
2026-04-20 23:30 35.06753 -85.18596 2681 ft 185 kts 47°
2026-04-20 23:31 35.07161 -85.17010 3039 ft 219 kts 91°
2026-04-20 23:31 35.06527 -85.15208 3316 ft 249 kts 134°
2026-04-20 23:31 35.05045 -85.13941 3716 ft 273 kts 154°
2026-04-20 23:31 35.03249 -85.13042 4433 ft 282 kts 161°
2026-04-20 23:32 35.01380 -85.12276 5361 ft 285 kts 163°
2026-04-20 23:32 34.99483 -85.11507 6239 ft 290 kts 162°
2026-04-20 23:32 34.97558 -85.10678 7019 ft 297 kts 161°
2026-04-20 23:32 34.95609 -85.09776 7797 ft 302 kts 160°
2026-04-20 23:33 34.93636 -85.08815 8604 ft 307 kts 159°
2026-04-20 23:33 34.91643 -85.07816 9409 ft 312 kts 159°
2026-04-20 23:33 34.89617 -85.06786 10156 ft 319 kts 159°
2026-04-20 23:33 34.87501 -85.05706 10458 ft 342 kts 159°
2026-04-20 23:34 34.85245 -85.04556 10845 ft 358 kts 159°
2026-04-20 23:34 34.82920 -85.03371 11507 ft 365 kts 159°
2026-04-20 23:34 34.80569 -85.02176 12249 ft 368 kts 160°
2026-04-20 23:34 34.78217 -85.00982 12966 ft 373 kts 160°
2026-04-20 23:35 34.75802 -84.99761 13669 ft 377 kts 160°
2026-04-20 23:35 34.70896 -84.97286 14947 ft 386 kts 160°
2026-04-20 23:35 34.68405 -84.96027 15540 ft 390 kts 160°
2026-04-20 23:36 34.65876 -84.94751 16148 ft 395 kts 160°
2026-04-20 23:36 34.63328 -84.93467 16733 ft 399 kts 160°
2026-04-20 23:36 34.60749 -84.92170 17317 ft 403 kts 160°
2026-04-20 23:36 34.58145 -84.90861 17896 ft 407 kts 160°
2026-04-20 23:37 34.55508 -84.89536 18476 ft 412 kts 160°
2026-04-20 23:37 34.52880 -84.88216 18986 ft 416 kts 160°
2026-04-20 23:37 34.51966 -84.87755 19157 ft 417 kts 160°
2026-04-20 23:37 34.49283 -84.86390 19699 ft 420 kts 160°
2026-04-20 23:38 34.46571 -84.85025 20229 ft 423 kts 161°
2026-04-20 23:38 34.43838 -84.83658 20758 ft 426 kts 161°
2026-04-20 23:38 34.41084 -84.82284 21290 ft 429 kts 161°
2026-04-20 23:38 34.38310 -84.80902 21811 ft 432 kts 161°
2026-04-20 23:39 34.35518 -84.79510 22339 ft 435 kts 161°
2026-04-20 23:39 34.32705 -84.78104 22866 ft 439 kts 161°
2026-04-20 23:39 34.29877 -84.76689 23386 ft 442 kts 162°
2026-04-20 23:39 34.27028 -84.75262 23883 ft 445 kts 162°
2026-04-20 23:40 34.24160 -84.73826 24302 ft 448 kts 162°
2026-04-20 23:40 34.21273 -84.72382 24716 ft 450 kts 162°
2026-04-20 23:40 34.18366 -84.70929 25130 ft 453 kts 162°
2026-04-20 23:40 34.15483 -84.69493 25523 ft 455 kts 162°
2026-04-20 23:41 34.12546 -84.68035 25913 ft 458 kts 163°
2026-04-20 23:41 34.09591 -84.66572 26294 ft 460 kts 163°
2026-04-20 23:41 34.06582 -84.65082 26664 ft 463 kts 163°
2026-04-20 23:41 34.03630 -84.63617 27023 ft 466 kts 163°
2026-04-20 23:42 34.00628 -84.62124 27376 ft 468 kts 163°
2026-04-20 23:42 33.97611 -84.60624 27723 ft 471 kts 163°
2026-04-20 23:42 33.94572 -84.59115 28064 ft 474 kts 163°
2026-04-20 23:42 33.91513 -84.57603 28395 ft 476 kts 164°
2026-04-20 23:43 33.88443 -84.56091 28710 ft 479 kts 164°
2026-04-20 23:43 33.85343 -84.54565 29028 ft 482 kts 164°
2026-04-20 23:43 33.82233 -84.53032 29328 ft 485 kts 164°
2026-04-20 23:43 33.79103 -84.51487 29630 ft 487 kts 164°
2026-04-20 23:44 33.75961 -84.49936 29939 ft 490 kts 164°
2026-04-20 23:44 33.72794 -84.48373 30223 ft 493 kts 164°
2026-04-20 23:44 33.69619 -84.46805 30479 ft 495 kts 164°
2026-04-20 23:44 33.66425 -84.45231 30722 ft 497 kts 165°
2026-04-20 23:45 33.63216 -84.43657 30967 ft 499 kts 165°
2026-04-20 23:45 33.59979 -84.42164 31187 ft 499 kts 167°
2026-04-20 23:45 33.56704 -84.40791 31417 ft 499 kts 169°
2026-04-20 23:45 33.53400 -84.39503 31641 ft 499 kts 171°
2026-04-20 23:46 33.50086 -84.38253 31985 ft 498 kts 171°
2026-04-20 23:46 33.46791 -84.37005 32325 ft 497 kts 171°
2026-04-20 23:46 33.43499 -84.35734 32658 ft 497 kts 171°
2026-04-20 23:46 33.40218 -84.34441 32985 ft 496 kts 170°
2026-04-20 23:47 33.36949 -84.33132 33316 ft 495 kts 170°
2026-04-20 23:47 33.33683 -84.31813 33624 ft 495 kts 170°
2026-04-20 23:47 33.30423 -84.30492 33938 ft 495 kts 171°
2026-04-20 23:47 33.27169 -84.29177 34249 ft 494 kts 171°
2026-04-20 23:48 33.23915 -84.27869 34529 ft 493 kts 171°
2026-04-20 23:48 33.20660 -84.26571 34760 ft 493 kts 171°
2026-04-20 23:48 33.17405 -84.25280 34963 ft 493 kts 171°
2026-04-20 23:48 33.14149 -84.23990 35189 ft 493 kts 171°
2026-04-20 23:49 33.10893 -84.22697 35422 ft 493 kts 171°
2026-04-20 23:49 33.07632 -84.21397 35631 ft 494 kts 171°
2026-04-20 23:49 33.04374 -84.20096 35837 ft 494 kts 171°
2026-04-20 23:49 33.01103 -84.18792 36043 ft 494 kts 171°
2026-04-20 23:50 32.97842 -84.17498 36246 ft 494 kts 171°
2026-04-20 23:50 32.94574 -84.16203 36432 ft 495 kts 171°
2026-04-20 23:50 32.91353 -84.14931 36606 ft 495 kts 171°
2026-04-20 23:50 32.88084 -84.13640 36801 ft 495 kts 171°
2026-04-20 23:51 32.84820 -84.12352 36978 ft 494 kts 171°
2026-04-20 23:51 32.81549 -84.11060 37161 ft 495 kts 171°
2026-04-20 23:51 32.78284 -84.09773 37264 ft 494 kts 172°
2026-04-20 23:52 32.71770 -84.07210 37273 ft 492 kts 172°
2026-04-20 23:52 32.65278 -84.04654 37272 ft 492 kts 172°
2026-04-20 23:53 32.58790 -84.02100 37275 ft 491 kts 172°
2026-04-20 23:53 32.52302 -83.99550 37279 ft 491 kts 172°
2026-04-20 23:54 32.45806 -83.97004 37277 ft 491 kts 172°